Weather History for KIGQ - March, 2014

Change the Weather History Date:

Sunday, March 2, 2014

  Actual Average (KMDW) Record (KMDW)
Temperature  
Mean Temperature 10 °F 34 °F  
Max Temperature 14 °F 41 °F 71 °F (1974)
Min Temperature 5 °F 26 °F -4 °F (1913)
Degree Days  
Heating Degree Days 56 31  
Month to date heating degree days 63  
Since 1 July heating degree days 4574  
Cooling Degree Days 0 0  
Month to date cooling degree days 0  
Year to date cooling degree days 0  
Moisture  
Dew Point 2 °F    
Average Humidity 69    
Maximum Humidity 86    
Minimum Humidity 47    
Precipitation  
Precipitation 0.01 in 0.08 in 1.02 in (2002)
Month to date precipitation 0.17  
Year to date precipitation 4.17  
Sea Level Pressure  
Sea Level Pressure 30.35 in    
Wind  
Wind Speed 8 mph (North)    
Max Wind Speed 15 mph    
Max Gust Speed 21 mph    
Visibility 8 miles    
Events Snow    
T = Trace of Precipitation, MM = Missing Value Source: NWS Daily Summary

Daily Weather History Graph

Daily Weather History Graph

Search for Another Location

Airport or City:

Trip Planner

Search our weather history database for the weather conditions in past years. The results will help you decide how hot, cold, wet, or windy it might be!

Date:

Astronomy

Mar. 02, 2014 Rise Set
Actual Time 6:23 AM CST 5:41 PM CST
Civil Twilight 5:55 AM CST 6:09 PM CST
Nautical Twilight 5:23 AM CST 6:41 PM CST
Astronomical Twilight 4:51 AM CST 7:14 PM CST
Moon 6:52 AM CST (3/2) 7:39 PM CST (3/2)
Length of Visible Light 12h 14m
Length of Day
11h 18m
Waxing Crescent, 3% of the Moon is Illuminated
Mar 2
Waxing Crescent
Mar 8
First Quarter
Mar 16
Full
Mar 23
Last Quarter
Mar 30
New

Hourly Weather History & Observations

Time (CST) Temp. Windchill Dew Point Humidity Pressure Visibility Wind Dir Wind Speed Gust Speed Precip Events Conditions
12:15 AM 14.0 °F 3.9 °F 10.4 °F 86% 30.31 in 1.2 mi NNW 6.9 mph - N/A Snow Light Snow
12:35 AM 13.8 °F 6.2 °F 10.0 °F 85% 30.32 in 2.5 mi NNW 4.6 mph - N/A Snow Light Snow
12:55 AM 13.5 °F 2.2 °F 9.3 °F 84% 30.33 in 2.5 mi NNW 8.1 mph - N/A Snow Light Snow
1:15 AM 13.1 °F 2.8 °F 8.6 °F 82% 30.32 in 2.0 mi NNW 6.9 mph - N/A Snow Light Snow
1:35 AM 12.6 °F 0.2 °F 8.2 °F 83% 30.31 in 3.0 mi North 9.2 mph - 0.01 in Snow Light Snow
1:55 AM 12.2 °F 0.7 °F 8.2 °F 84% 30.31 in 2.0 mi NNW 8.1 mph - 0.01 in Snow Light Snow
2:15 AM 12.2 °F 0.7 °F 8.6 °F 85% 30.30 in 1.0 mi North 8.1 mph - N/A Snow Snow
2:35 AM 12.2 °F -0.2 °F 7.7 °F 82% 30.31 in 2.5 mi North 9.2 mph - N/A Snow Light Snow
2:55 AM 12.2 °F 1.7 °F 7.7 °F 82% 30.31 in 2.5 mi NNW 6.9 mph - N/A Snow Light Snow
3:15 AM 11.7 °F 1.1 °F 7.5 °F 83% 30.30 in 2.5 mi North 6.9 mph - N/A Snow Light Snow
3:35 AM 11.8 °F 2.5 °F 7.7 °F 83% 30.31 in 3.0 mi NNW 5.8 mph - N/A Snow Light Snow
3:55 AM 11.5 °F -1.1 °F 7.3 °F 83% 30.30 in 3.0 mi NNW 9.2 mph - N/A Snow Light Snow
4:15 AM 11.3 °F 0.7 °F 7.3 °F 84% 30.30 in 3.0 mi North 6.9 mph - N/A Snow Light Snow
4:35 AM 11.3 °F -1.3 °F 7.3 °F 84% 30.32 in 3.0 mi NNW 9.2 mph - N/A Snow Light Snow
4:55 AM 11.7 °F 3.7 °F 7.5 °F 83% 30.32 in 3.0 mi North 4.6 mph - N/A Snow Light Snow
5:15 AM 11.3 °F -2.9 °F 6.8 °F 82% 30.32 in 2.0 mi North 11.5 mph - N/A Snow Light Snow
5:35 AM 11.3 °F -1.3 °F 6.6 °F 81% 30.32 in 5.0 mi North 9.2 mph - N/A Snow Light Snow
5:55 AM 11.3 °F -0.4 °F 6.6 °F 81% 30.32 in 5.0 mi NNW 8.1 mph - N/A Snow Light Snow
6:15 AM 11.1 °F 0.4 °F 6.8 °F 83% 30.32 in 3.0 mi NNW 6.9 mph - N/A Snow Light Snow
6:35 AM 10.8 °F 0.0 °F 6.1 °F 81% 30.32 in 3.0 mi NNW 6.9 mph - N/A Snow Light Snow
6:55 AM 10.4 °F -1.5 °F 5.5 °F 81% 30.33 in 3.0 mi North 8.1 mph - N/A Snow Light Snow
7:15 AM 10.2 °F -1.7 °F 4.8 °F 79% 30.33 in 10.0 mi NNW 8.1 mph - N/A   Mostly Cloudy
7:35 AM 10.2 °F -0.6 °F 3.9 °F 76% 30.34 in 7.0 mi NNW 6.9 mph - N/A Snow Light Snow
7:55 AM 10.0 °F -1.9 °F 2.7 °F 72% 30.34 in 10.0 mi NNW 8.1 mph - N/A Snow Light Snow
8:15 AM 10.4 °F 0.8 °F 2.7 °F 71% 30.34 in 10.0 mi NNW 5.8 mph - N/A   Overcast
8:35 AM 11.1 °F -0.6 °F 2.7 °F 69% 30.35 in 10.0 mi NNW 8.1 mph - N/A   Overcast
8:55 AM 11.1 °F -0.6 °F 2.1 °F 67% 30.36 in 10.0 mi NW 8.1 mph - N/A   Overcast
9:15 AM 11.1 °F -0.6 °F 1.8 °F 66% 30.36 in 10.0 mi NW 8.1 mph - N/A   Overcast
9:35 AM 11.3 °F 0.7 °F 2.1 °F 67% 30.36 in 10.0 mi North 6.9 mph - N/A   Overcast
10:00 AM 11.8 °F 0.3 °F 1.8 °F 64% 30.37 in 10.0 mi NW 8.1 mph - N/A   Overcast
10:15 AM 12.2 °F 0.7 °F 1.9 °F 64% 30.37 in 10.0 mi NNW 8.1 mph - N/A   Overcast
10:35 AM 12.6 °F 1.1 °F 1.4 °F 61% 30.36 in 10.0 mi NNW 8.1 mph - N/A   Overcast
10:55 AM 12.7 °F 1.4 °F 1.8 °F 62% 30.36 in 10.0 mi NNW 8.1 mph - N/A   Overcast
11:15 AM 13.1 °F 1.8 °F 2.1 °F 62% 30.36 in 10.0 mi North 8.1 mph - N/A   Overcast
11:35 AM 13.5 °F 2.2 °F 2.1 °F 61% 30.36 in 10.0 mi NNW 8.1 mph - N/A   Overcast
11:55 AM 13.5 °F 2.2 °F 1.9 °F 60% 30.36 in 10.0 mi NNW 8.1 mph - N/A   Overcast
12:15 PM 13.8 °F 1.8 °F 2.5 °F 61% 30.35 in 10.0 mi NNE 9.2 mph - N/A   Overcast
12:35 PM 14.0 °F 2.9 °F 2.3 °F 60% 30.34 in 10.0 mi North 8.1 mph - N/A   Overcast
12:55 PM 14.0 °F 2.9 °F 2.3 °F 60% 30.34 in 10.0 mi NNE 8.1 mph - N/A   Overcast
1:15 PM 13.1 °F -0.7 °F 5.2 °F 71% 30.33 in 7.0 mi NNE 11.5 mph 17.3 mph N/A   Overcast
1:35 PM 12.9 °F -1.6 °F 4.6 °F 70% 30.33 in 5.0 mi NNE 12.7 mph 16.1 mph N/A   Haze
1:55 PM 13.8 °F -0.5 °F 4.6 °F 67% 30.32 in 10.0 mi NNE 12.7 mph 17.3 mph N/A   Overcast
2:15 PM 12.7 °F -3.0 °F 4.1 °F 68% 30.32 in 10.0 mi NNE 15.0 mph - N/A   Overcast
2:35 PM 12.9 °F 0.7 °F 4.5 °F 69% 30.33 in 10.0 mi North 9.2 mph 17.3 mph N/A   Mostly Cloudy
2:55 PM 12.4 °F -2.9 °F 3.7 °F 68% 30.34 in 10.0 mi North 13.8 mph 18.4 mph N/A   Mostly Cloudy
3:15 PM 12.0 °F -2.7 °F 3.2 °F 68% 30.36 in 10.0 mi NNE 12.7 mph - N/A   Mostly Cloudy
3:35 PM 11.8 °F -3.0 °F 3.2 °F 68% 30.34 in 10.0 mi North 12.7 mph 20.7 mph N/A   Overcast
3:55 PM 11.7 °F -0.9 °F 3.2 °F 69% 30.34 in 10.0 mi North 9.2 mph - N/A   Overcast
4:15 PM 11.7 °F -3.2 °F 3.0 °F 68% 30.33 in 10.0 mi North 12.7 mph 18.4 mph N/A   Scattered Clouds
4:35 PM 11.3 °F -3.6 °F 2.3 °F 67% 30.34 in 10.0 mi North 12.7 mph 19.6 mph N/A   Clear
4:55 PM 11.3 °F -1.3 °F 2.8 °F 69% 30.35 in 10.0 mi North 9.2 mph - N/A   Clear
5:15 PM 10.9 °F -3.4 °F 2.3 °F 68% 30.34 in 10.0 mi North 11.5 mph - N/A   Clear
5:35 PM 10.4 °F -3.3 °F 1.6 °F 68% 30.36 in 10.0 mi North 10.4 mph 16.1 mph N/A   Clear
5:55 PM 10.2 °F -5.0 °F 1.2 °F 67% 30.35 in 10.0 mi North 12.7 mph 16.1 mph N/A   Clear
6:15 PM 10.0 °F -2.9 °F 0.3 °F 65% 30.36 in 10.0 mi North 9.2 mph - N/A   Clear
6:35 PM 10.0 °F -0.9 °F -0.0 °F 64% 30.37 in 10.0 mi North 6.9 mph - N/A   Clear
6:55 PM 9.9 °F -2.2 °F -0.0 °F 64% 30.38 in 10.0 mi North 8.1 mph - N/A   Clear
7:15 PM 9.5 °F -3.5 °F 0.3 °F 66% 30.37 in 10.0 mi North 9.2 mph - N/A   Clear
7:35 PM 9.5 °F -3.5 °F -0.8 °F 63% 30.37 in 10.0 mi North 9.2 mph - N/A   Clear
7:55 PM 9.1 °F -1.9 °F -1.3 °F 63% 30.39 in 10.0 mi North 6.9 mph - N/A   Clear
8:15 PM 8.8 °F -2.4 °F -2.6 °F 60% 30.38 in 10.0 mi North 6.9 mph - N/A   Clear
8:35 PM 8.4 °F -1.6 °F -4.4 °F 56% 30.38 in 10.0 mi North 5.8 mph - N/A   Clear
8:55 PM 7.7 °F -4.8 °F -5.1 °F 56% 30.39 in 10.0 mi North 8.1 mph - N/A   Clear
9:15 PM 7.2 °F -5.4 °F -6.0 °F 55% 30.40 in 10.0 mi NNW 8.1 mph - N/A   Clear
9:35 PM 6.6 °F -6.1 °F -9.6 °F 48% 30.41 in 10.0 mi North 8.1 mph - N/A   Clear
9:55 PM 6.4 °F -3.9 °F -9.9 °F 47% 30.42 in 10.0 mi NNW 5.8 mph - N/A   Clear
10:15 PM 5.7 °F -3.2 °F -10.1 °F 48% 30.42 in 10.0 mi NNW 4.6 mph - N/A   Clear
10:35 PM 5.7 °F -6.1 °F -10.3 °F 48% 30.41 in 10.0 mi North 6.9 mph - N/A   Clear
11:00 PM 5.5 °F -5.0 °F -9.8 °F 49% 30.40 in 10.0 mi North 5.8 mph - N/A   Clear
11:15 PM 5.5 °F -5.0 °F -9.9 °F 49% 30.40 in 10.0 mi North 5.8 mph - N/A   Clear
11:35 PM 5.7 °F -7.2 °F -9.4 °F 50% 30.40 in 10.0 mi North 8.1 mph - N/A   Clear
11:55 PM 5.7 °F -4.8 °F -8.9 °F 51% 30.42 in 10.0 mi North 5.8 mph - N/A   Clear